| time (UTC) | temp F | wind direction | speed MPH | gust MPH | rain 1hr in | rain 24hr in | rain mn in | humidity % | barometer mb |
| 20260901154947 | 70 | 270 | 6.0 | 11.0 | 0.00 | 0.04 | 0.00 | 60 | 1062.7 |
| 20260901154446 | 70 | 315 | 6.0 | 17.0 | 0.00 | 0.04 | 0.00 | 59 | 1013.0 |
| 20260901153945 | 70 | 270 | 8.0 | 17.0 | 0.00 | 0.04 | 0.00 | 58 | 1076.9 |
| 20260901153446 | 71 | 270 | 7.0 | 17.0 | 0.00 | 0.04 | 0.00 | 57 | 1026.1 |
| 20260901152946 | 71 | 270 | 16.0 | 20.0 | 0.00 | 0.04 | 0.00 | 57 | 1067.4 |
| 20260901152447 | 71 | 270 | 14.0 | 20.0 | 0.00 | 0.04 | 0.00 | 56 | 1056.4 |
| 20260901151947 | 71 | 270 | 14.0 | 25.0 | 0.00 | 0.04 | 0.00 | 56 | 1050.1 |
| 20260901151446 | 71 | 247 | 17.0 | 18.0 | 0.00 | 0.04 | 0.00 | 56 | 983.8 |
| 20260901150946 | 72 | 247 | 18.0 | 19.0 | 0.00 | 0.04 | 0.00 | 56 | 1068.6 |
| 20260901150645 | 72 | 270 | 10.0 | 23.0 | 0.00 | 0.04 | 0.00 | 56 | 1047.6 |
| 20260901150446 | 72 | 270 | 12.0 | 23.0 | 0.00 | 0.04 | 0.00 | 57 | 1038.2 |
| 20260901145946 | 72 | 225 | 16.0 | 21.0 | 0.00 | 0.04 | 0.00 | 57 | 1046.9 |
| 20260901145446 | 71 | 225 | 9.0 | 17.0 | 0.00 | 0.04 | 0.00 | 59 | 1064.2 |
| 20260901144946 | 72 | 225 | 3.0 | 18.0 | 0.00 | 0.04 | 0.00 | 58 | 1019.3 |
| 20260901144447 | 72 | 247 | 7.0 | 15.0 | 0.00 | 0.04 | 0.00 | 57 | 1065.8 |
| 20260901143946 | 73 | 225 | 10.0 | 21.0 | 0.00 | 0.04 | 0.00 | 57 | 1073.8 |
| 20260901143446 | 72 | 225 | 12.0 | 17.0 | 0.00 | 0.04 | 0.00 | 60 | 1016.2 |
| 20260901143345 | 72 | 270 | 17.0 | 17.0 | 0.00 | 0.04 | 0.00 | 60 | 1075.3 |
| 20260901142946 | 72 | 337 | 4.0 | 16.0 | 0.00 | 0.04 | 0.00 | 60 | 1073.7 |
| 20260901142447 | 71 | 225 | 13.0 | 17.0 | 0.00 | 0.04 | 0.00 | 59 | 1056.5 |
| 20260901141947 | 71 | 270 | 9.0 | 18.0 | 0.00 | 0.04 | 0.00 | 60 | 1055.2 |
| 20260901141447 | 71 | 202 | 10.0 | 21.0 | 0.00 | 0.04 | 0.00 | 60 | 1075.2 |
| 20260901140947 | 71 | 270 | 6.0 | 18.0 | 0.00 | 0.04 | 0.00 | 59 | 1020.9 |
| 20260901140447 | 72 | 270 | 16.0 | 18.0 | 0.00 | 0.04 | 0.00 | 59 | 1065.8 |
| 20260901140046 | 72 | 247 | 8.0 | 16.0 | 0.00 | 0.04 | 0.00 | 59 | 1056.4 |
| 20260901135947 | 73 | 292 | 10.0 | 16.0 | 0.00 | 0.08 | 0.00 | 59 | 1050.1 |
| 20260901135447 | 73 | 202 | 7.0 | 19.0 | 0.00 | 0.08 | 0.00 | 61 | 1067.3 |
| 20260901134447 | 71 | 270 | 11.0 | 17.0 | 0.00 | 0.08 | 0.00 | 63 | 1043.8 |
| 20260901133947 | 71 | 247 | 17.0 | 17.0 | 0.00 | 0.08 | 0.00 | 65 | 1090.9 |
| 20260901133447 | 70 | 270 | 18.0 | 21.0 | 0.00 | 0.08 | 0.00 | 66 | 1037.4 |
| 20260901132947 | 70 | 225 | 9.0 | 12.0 | 0.00 | 0.08 | 0.00 | 67 | 1056.4 |
| 20260901132746 | 70 | 247 | 2.0 | 12.0 | 0.00 | 0.08 | 0.00 | 67 | 1061.1 |
| 20260901132447 | 70 | 180 | 10.0 | 13.0 | 0.00 | 0.08 | 0.00 | 67 | 1070.7 |
| 20260901131447 | 70 | 270 | 15.0 | 19.0 | 0.00 | 0.08 | 0.00 | 69 | 1056.4 |
| 20260901130947 | 70 | 270 | 18.0 | 19.0 | 0.00 | 0.08 | 0.00 | 70 | 1055.0 |
| 20260901130447 | 69 | 247 | 13.0 | 19.0 | 0.00 | 0.08 | 0.00 | 70 | 1068.9 |
| 20260901125947 | 69 | 247 | 7.0 | 15.0 | 0.02 | 0.08 | 0.00 | 71 | 1067.6 |
| 20260901125446 | 69 | 270 | 5.0 | 14.0 | 0.02 | 0.08 | 0.00 | 72 | 1083.1 |
| 20260901124947 | 68 | 270 | 6.0 | 21.0 | 0.02 | 0.08 | 0.00 | 72 | 1067.3 |
| 20260901124447 | 69 | 247 | 8.0 | 19.0 | 0.02 | 0.08 | 0.00 | 72 | 1080.1 |
| 20260901123947 | 69 | 270 | 5.0 | 20.0 | 0.02 | 0.08 | 0.00 | 73 | 1050.1 |
| 20260901123447 | 69 | 270 | 12.0 | 17.0 | 0.02 | 0.08 | 0.00 | 74 | 1078.6 |
| 20260901122947 | 68 | 157 | 5.0 | 18.0 | 0.02 | 0.08 | 0.00 | 74 | 1072.1 |
| 20260901122447 | 67 | 247 | 18.0 | 18.0 | 0.02 | 0.08 | 0.00 | 73 | 1084.7 |
| 20260901122146 | 67 | 247 | 8.0 | 15.0 | 0.02 | 0.08 | 0.00 | 73 | 1064.3 |
| 20260901121947 | 67 | 180 | 4.0 | 17.0 | 0.04 | 0.08 | 0.00 | 71 | 1053.2 |
| 20260901121447 | 67 | 225 | 13.0 | 17.0 | 0.04 | 0.08 | 0.00 | 69 | 1042.4 |
| 20260901120947 | 68 | 270 | 8.0 | 18.0 | 0.04 | 0.08 | 0.00 | 66 | 1076.8 |
| 20260901120447 | 70 | 270 | 17.0 | 17.0 | 0.02 | 0.06 | 0.00 | 64 | 1076.8 |
| 20260901115947 | 70 | 270 | 8.0 | 16.0 | 0.02 | 0.06 | 0.00 | 64 | 1011.4 |
| 20260901115447 | 70 | 247 | 8.0 | 20.0 | 0.02 | 0.06 | 0.00 | 65 | 1031.2 |
| 20260901114947 | 70 | 247 | 14.0 | 19.0 | 0.02 | 0.06 | 0.00 | 66 | 1073.4 |
| 20260901114846 | 69 | 270 | 11.0 | 19.0 | 0.02 | 0.06 | 0.00 | 66 | 1053.1 |
| 20260901114447 | 69 | 270 | 18.0 | 22.0 | 0.02 | 0.06 | 0.00 | 67 | 1073.7 |
| 20260901113947 | 69 | 225 | 12.0 | 21.0 | 0.02 | 0.06 | 0.00 | 67 | 1054.8 |
| 20260901113447 | 70 | 225 | 12.0 | 18.0 | 0.02 | 0.06 | 0.00 | 67 | 1035.0 |
| 20260901112947 | 70 | 270 | 6.0 | 17.0 | 0.02 | 0.06 | 0.00 | 67 | 1065.8 |
| 20260901112447 | 71 | 247 | 4.0 | 19.0 | 0.02 | 0.06 | 0.00 | 63 | 1009.8 |
| 20260901111947 | 73 | 292 | 12.0 | 24.0 | 0.00 | 0.04 | 0.00 | 58 | 1065.8 |
| 20260901111546 | 74 | 180 | 11.0 | 19.0 | 0.00 | 0.04 | 0.00 | 56 | 1053.2 |
| 20260901111447 | 74 | 225 | 8.0 | 19.0 | 0.00 | 0.04 | 0.00 | 55 | 1064.2 |
| 20260901110948 | 75 | 270 | 9.0 | 17.0 | 0.00 | 0.04 | 0.00 | 56 | 1016.2 |
| 20260901105947 | 72 | 247 | 6.0 | 20.0 | 0.00 | 0.04 | 0.00 | 61 | 1044.5 |
| 20260901105447 | 71 | 247 | 9.0 | 17.0 | 0.00 | 0.04 | 0.00 | 62 | 1073.7 |
| 20260901104947 | 71 | 270 | 14.0 | 18.0 | 0.00 | 0.04 | 0.00 | 61 | 1062.7 |
| 20260901104447 | 71 | 247 | 18.0 | 19.0 | 0.00 | 0.04 | 0.00 | 60 | 1051.6 |
| 20260901104246 | 70 | 247 | 11.0 | 19.0 | 0.00 | 0.04 | 0.00 | 60 | 1081.5 |
| 20260901103947 | 71 | 225 | 19.0 | 19.0 | 0.00 | 0.04 | 0.00 | 59 | 1063.9 |
| 20260901103447 | 71 | 202 | 14.0 | 22.0 | 0.00 | 0.04 | 0.00 | 57 | 1073.7 |
| 20260901102947 | 72 | 202 | 17.0 | 20.0 | 0.00 | 0.04 | 0.00 | 56 | 1046.9 |
| 20260901102447 | 72 | 225 | 12.0 | 17.0 | 0.00 | 0.04 | 0.00 | 56 | 1019.3 |
| 20260901101947 | 73 | 292 | 9.0 | 18.0 | 0.00 | 0.04 | 0.00 | 54 | 1059.5 |
| 20260901101447 | 74 | 247 | 9.0 | 14.0 | 0.00 | 0.04 | 0.00 | 53 | 1052.2 |
| 20260901100946 | 75 | 202 | 12.0 | 13.0 | 0.00 | 0.04 | 0.00 | 52 | 1073.6 |
| 20260901100447 | 76 | 157 | 5.0 | 17.0 | 0.00 | 0.04 | 0.00 | 52 | 1040.6 |
| 20260901095947 | 76 | 202 | 11.0 | 17.0 | 0.00 | 0.04 | 0.00 | 53 | 1056.4 |
| 20260901095447 | 75 | 157 | 5.0 | 17.0 | 0.00 | 0.04 | 0.00 | 53 | 1062.7 |
| 20260901094947 | 75 | 270 | 10.0 | 20.0 | 0.00 | 0.04 | 0.00 | 52 | 1024.0 |
| 20260901094447 | 75 | 292 | 6.0 | 21.0 | 0.00 | 0.04 | 0.00 | 52 | 1065.8 |
| 20260901093947 | 75 | 315 | 9.0 | 17.0 | 0.00 | 0.04 | 0.00 | 51 | 1062.7 |
| 20260901093646 | 75 | 270 | 10.0 | 14.0 | 0.00 | 0.04 | 0.00 | 54 | 1075.2 |
| 20260901093447 | 75 | 225 | 10.0 | 13.0 | 0.00 | 0.04 | 0.00 | 54 | 1078.4 |
| 20260901092947 | 74 | 247 | 8.0 | 23.0 | 0.00 | 0.04 | 0.00 | 54 | 1049.2 |
| 20260901092447 | 73 | 247 | 15.0 | 21.0 | 0.00 | 0.04 | 0.00 | 55 | 1069.0 |
| 20260901091947 | 73 | 247 | 10.0 | 20.0 | 0.00 | 0.04 | 0.00 | 55 | 1027.2 |
| 20260901091447 | 75 | 270 | 17.0 | 17.0 | 0.00 | 0.04 | 0.00 | 53 | 1050.1 |
| 20260901090947 | 75 | 270 | 6.0 | 19.0 | 0.00 | 0.04 | 0.00 | 52 | 1072.1 |
| 20260901090447 | 76 | 202 | 14.0 | 19.0 | 0.00 | 0.04 | 0.00 | 53 | 1080.5 |
| 20260901090346 | 76 | 180 | 4.0 | 20.0 | 0.00 | 0.04 | 0.00 | 53 | 1069.0 |
| 20260901085947 | 76 | 225 | 5.0 | 20.0 | 0.00 | 0.04 | 0.00 | 53 | 1073.7 |
| 20260901085447 | 76 | 225 | 11.0 | 20.0 | 0.00 | 0.04 | 0.00 | 54 | 1069.0 |
| 20260901084947 | 75 | 225 | 4.0 | 14.0 | 0.00 | 0.04 | 0.00 | 55 | 1053.2 |
| 20260901084447 | 74 | 292 | 5.0 | 15.0 | 0.00 | 0.04 | 0.00 | 54 | 1011.4 |
| 20260901083947 | 75 | 270 | 8.0 | 12.0 | 0.00 | 0.04 | 0.00 | 54 | 1087.8 |
| 20260901083447 | 75 | 247 | 12.0 | 21.0 | 0.00 | 0.04 | 0.00 | 53 | 1050.1 |
| 20260901083046 | 76 | 270 | 17.0 | 21.0 | 0.00 | 0.04 | 0.00 | 52 | 1069.0 |
| 20260901082947 | 76 | 270 | 21.0 | 21.0 | 0.00 | 0.04 | 0.00 | 51 | 1062.7 |
| 20260901082447 | 77 | 202 | 15.0 | 23.0 | 0.00 | 0.04 | 0.00 | 50 | 1053.2 |
| 20260901081947 | 78 | 270 | 8.0 | 19.0 | 0.00 | 0.04 | 0.00 | 51 | 1072.1 |
| 20260901081447 | 78 | 315 | 11.0 | 19.0 | 0.00 | 0.04 | 0.00 | 51 | 1061.1 |
| 20260901080947 | 78 | 247 | 14.0 | 17.0 | 0.00 | 0.04 | 0.00 | 51 | 1025.6 |
| 20260901080447 | 79 | 247 | 15.0 | 21.0 | 0.00 | 0.04 | 0.00 | 49 | 1075.2 |
| 20260901075947 | 80 | 225 | 12.0 | 19.0 | 0.00 | 0.04 | 0.00 | 49 | 1046.9 |
| 20260901075746 | 80 | 270 | 10.0 | 19.0 | 0.00 | 0.04 | 0.00 | 49 | 1064.2 |
| 20260901075447 | 80 | 180 | 11.0 | 21.0 | 0.00 | 0.04 | 0.00 | 49 | 1050.1 |
| 20260901074947 | 80 | 270 | 17.0 | 20.0 | 0.00 | 0.04 | 0.00 | 50 | 1056.4 |
| 20260901074447 | 80 | 180 | 14.0 | 14.0 | 0.00 | 0.04 | 0.00 | 51 | 1040.6 |
| 20260901073947 | 80 | 247 | 8.0 | 16.0 | 0.00 | 0.04 | 0.00 | 51 | 1065.9 |
| 20260901073447 | 80 | 270 | 6.0 | 17.0 | 0.00 | 0.04 | 0.00 | 52 | 1017.7 |
| 20260901072947 | 80 | 270 | 4.0 | 16.0 | 0.00 | 0.04 | 0.00 | 51 | 1069.0 |
| 20260901072446 | 80 | 247 | 6.0 | 18.0 | 0.00 | 0.04 | 0.00 | 50 | 1059.5 |
| 20260901071947 | 81 | 180 | 12.0 | 18.0 | 0.00 | 0.04 | 0.00 | 51 | 1056.0 |
| 20260901071447 | 80 | 225 | 9.0 | 12.0 | 0.00 | 0.04 | 0.00 | 53 | 1025.6 |
| 20260901070947 | 80 | 270 | 10.0 | 14.0 | 0.00 | 0.04 | 0.00 | 52 | 1078.4 |
| 20260901070447 | 80 | 202 | 6.0 | 19.0 | 0.00 | 0.04 | 0.00 | 53 | 1059.5 |
| 20260901065947 | 80 | 247 | 15.0 | 15.0 | 0.00 | 0.04 | 0.00 | 54 | 1059.5 |
| 20260901065447 | 79 | 225 | 2.0 | 11.0 | 0.00 | 0.04 | 0.00 | 56 | 1062.7 |
| 20260901065146 | 79 | 225 | 8.0 | 13.0 | 0.00 | 0.04 | 0.00 | 57 | 1069.0 |
| 20260901064947 | 79 | 247 | 4.0 | 13.0 | 0.00 | 0.04 | 0.00 | 57 | 1061.1 |
| 20260901063947 | 76 | 225 | 8.0 | 10.0 | 0.00 | 0.04 | 0.00 | 63 | 1013.0 |
| 20260901062947 | 72 | 225 | 1.0 | 10.0 | 0.00 | 0.04 | 0.00 | 66 | 1020.9 |
| 20260901062447 | 72 | 247 | 4.0 | 18.0 | 0.00 | 0.04 | 0.00 | 63 | 1081.5 |
| 20260901061947 | 74 | 247 | 8.0 | 19.0 | 0.00 | 0.04 | 0.00 | 61 | 1043.8 |
| 20260901061846 | 75 | 247 | 11.0 | 19.0 | 0.00 | 0.04 | 0.00 | 61 | 1054.8 |
| 20260901061447 | 76 | 247 | 3.0 | 13.0 | 0.00 | 0.04 | 0.00 | 63 | 1053.2 |
| 20260901060947 | 75 | 202 | 10.0 | 14.0 | 0.00 | 0.04 | 0.00 | 65 | 1065.8 |
| 20260901060447 | 75 | 202 | 4.0 | 18.0 | 0.00 | 0.04 | 0.00 | 65 | 1019.3 |
| 20260901055947 | 75 | 225 | 4.0 | 16.0 | 0.00 | 0.04 | 0.00 | 65 | 1040.6 |
| 20260901055447 | 76 | 202 | 8.0 | 12.0 | 0.00 | 0.04 | 0.00 | 66 | 1078.4 |
| 20260901054947 | 75 | 247 | 11.0 | 18.0 | 0.00 | 0.04 | 0.00 | 68 | 1022.5 |
| 20260901054546 | 75 | 202 | 3.0 | 12.0 | 0.00 | 0.04 | 0.00 | 71 | 1009.9 |
| 20260901054447 | 74 | 292 | 7.0 | 12.0 | 0.00 | 0.04 | 0.00 | 73 | 1070.2 |
| 20260901053947 | 72 | 247 | 2.0 | 11.0 | 0.00 | 0.04 | 0.00 | 77 | 1013.0 |
| 20260901053447 | 70 | 225 | 7.0 | 12.0 | 0.00 | 0.04 | 0.00 | 80 | 1070.5 |
| 20260901052947 | 69 | 202 | 8.0 | 16.0 | 0.00 | 0.04 | 0.00 | 82 | 1062.7 |
| 20260901052447 | 68 | 247 | 4.0 | 12.0 | 0.00 | 0.04 | 0.00 | 83 | 1091.0 |
| 20260901051447 | 67 | 202 | 6.0 | 12.0 | 0.00 | 0.04 | 0.00 | 88 | 1061.1 |
| 20260901051247 | 67 | 180 | 4.0 | 11.0 | 0.00 | 0.04 | 0.00 | 90 | 1068.9 |
| 20260901050947 | 67 | 225 | 9.0 | 11.0 | 0.00 | 0.04 | 0.00 | 91 | 1075.3 |
| 20260901050447 | 66 | 157 | 2.0 | 10.0 | 0.00 | 0.04 | 0.00 | 93 | 1069.0 |
| 20260901045947 | 64 | 247 | 4.0 | 8.0 | 0.00 | 0.04 | 0.00 | 92 | 1056.4 |
| 20260901045447 | 62 | 225 | 5.0 | 11.0 | 0.00 | 0.04 | 0.00 | 91 | 1065.8 |
| 20260901044947 | 62 | 225 | 5.0 | 10.0 | 0.00 | 0.04 | 0.00 | 91 | 1059.5 |
| 20260901044447 | 61 | 225 | 4.0 | 10.0 | 0.00 | 0.04 | 0.00 | 91 | 1070.5 |
| 20260901043947 | 61 | 225 | 7.0 | 11.0 | 0.00 | 0.04 | 0.00 | 91 | 1076.8 |
| 20260901043447 | 61 | 225 | 9.0 | 10.0 | 0.00 | 0.04 | 0.00 | 91 | 1078.4 |
| 20260901042947 | 61 | 202 | 5.0 | 10.0 | 0.00 | 0.04 | 0.00 | 91 | 1076.8 |
| 20260901042448 | 61 | 202 | 10.0 | 11.0 | 0.00 | 0.04 | 0.00 | 91 | 1072.1 |
| 20260901041948 | 61 | 202 | 7.0 | 12.0 | 0.00 | 0.04 | 0.00 | 91 | 1068.9 |
| 20260901041448 | 61 | 202 | 10.0 | 12.0 | 0.00 | 0.04 | 0.00 | 91 | 1056.4 |
| 20260901040948 | 61 | 202 | 8.0 | 10.0 | 0.00 | 0.04 | 0.00 | 91 | 1069.0 |
| 20260901040647 | 61 | 270 | 9.0 | 10.0 | 0.00 | 0.04 | 0.00 | 91 | 1095.6 |
| 20260901040448 | 61 | 225 | 4.0 | 8.0 | 0.00 | 0.04 | 0.00 | 91 | 1028.0 |
| 20260901035948 | 61 | 202 | 4.0 | 10.0 | 0.00 | 0.04 | 0.00 | 91 | 1028.7 |
| 20260901035448 | 61 | 202 | 8.0 | 8.0 | 0.00 | 0.04 | 0.00 | 91 | 1072.1 |
| 20260901034948 | 61 | 202 | 6.0 | 7.0 | 0.00 | 0.04 | 0.00 | 91 | 1059.5 |
| 20260901034448 | 61 | 180 | 6.0 | 8.0 | 0.00 | 0.04 | 0.00 | 91 | 1059.5 |
| 20260901033948 | 61 | 225 | 4.0 | 6.0 | 0.00 | 0.04 | 0.00 | 91 | 1053.3 |
| 20260901033448 | 62 | 202 | 7.0 | 7.0 | 0.00 | 0.04 | 0.00 | 91 | 1065.8 |
| 20260901033347 | 62 | 247 | 5.0 | 7.0 | 0.00 | 0.04 | 0.00 | 91 | 994.9 |
| 20260901032948 | 62 | 202 | 4.0 | 7.0 | 0.00 | 0.04 | 0.00 | 91 | 1046.9 |
| 20260901032448 | 62 | 202 | 2.0 | 10.0 | 0.00 | 0.04 | 0.00 | 91 | 1073.7 |
| 20260901031948 | 62 | 180 | 3.0 | 8.0 | 0.00 | 0.04 | 0.00 | 91 | 1078.3 |
| 20260901031448 | 62 | 225 | 4.0 | 5.0 | 0.00 | 0.04 | 0.00 | 91 | 1059.5 |
| 20260901030948 | 62 | 180 | 2.0 | 6.0 | 0.00 | 0.04 | 0.00 | 91 | 1065.8 |
| 20260901030448 | 62 | 180 | 2.0 | 5.0 | 0.00 | 0.04 | 0.00 | 91 | 1065.8 |
| 20260901030047 | 62 | 225 | 1.0 | 6.0 | 0.00 | 0.04 | 0.00 | 91 | 1050.0 |
| 20260901025948 | 62 | 180 | 1.0 | 6.0 | 0.00 | 0.04 | 0.00 | 91 | 1050.0 |
| 20260901025448 | 62 | 180 | 4.0 | 7.0 | 0.00 | 0.04 | 0.00 | 91 | 1056.4 |
| 20260901024948 | 62 | 225 | 5.0 | 9.0 | 0.00 | 0.04 | 0.00 | 91 | 1068.9 |
| 20260901024448 | 62 | 202 | 9.0 | 10.0 | 0.00 | 0.04 | 0.00 | 91 | 1034.4 |
| 20260901023948 | 62 | 225 | 4.0 | 6.0 | 0.00 | 0.04 | 0.00 | 91 | 1059.5 |
| 20260901023448 | 62 | 225 | 6.0 | 6.0 | 0.00 | 0.04 | 0.00 | 91 | 1064.2 |
| 20260901022948 | 62 | 202 | 5.0 | 8.0 | 0.00 | 0.04 | 0.00 | 91 | 1072.1 |
| 20260901022747 | 62 | 202 | 2.0 | 8.0 | 0.00 | 0.04 | 0.00 | 91 | 1011.4 |
| 20260901022448 | 62 | 202 | 8.0 | 8.0 | 0.00 | 0.04 | 0.00 | 91 | 1070.8 |
| 20260901022022 | 62 | 225 | 2.0 | 5.0 | 0.00 | 0.04 | 0.00 | 91 | 1078.0 |
| 20260901021948 | 62 | 225 | 2.0 | 5.0 | 0.00 | 0.04 | 0.00 | 91 | 1078.0 |
| 20260901021448 | 62 | 225 | 2.0 | 6.0 | 0.00 | 0.04 | 0.00 | 91 | 1065.8 |
| 20260901020948 | 62 | 225 | 4.0 | 5.0 | 0.00 | 0.04 | 0.00 | 91 | 1062.7 |
| 20260901020448 | 62 | 202 | 4.0 | 4.0 | 0.00 | 0.04 | 0.00 | 90 | 1031.8 |
| 20260901015948 | 62 | 225 | 3.0 | 5.0 | 0.00 | 0.04 | 0.00 | 90 | 1065.8 |
| 20260901015447 | 62 | 202 | 2.0 | 5.0 | 0.00 | 0.04 | 0.00 | 90 | 1065.8 |
| 20260901014948 | 62 | 202 | 3.0 | 6.0 | 0.00 | 0.04 | 0.00 | 90 | 1065.8 |
| 20260901014448 | 62 | 180 | 2.0 | 33.0 | 0.00 | 0.04 | 0.00 | 90 | 1065.8 |
| 20260901013948 | 62 | 247 | 4.0 | 5.0 | 0.00 | 0.04 | 0.00 | 90 | 1068.9 |
| 20260901013448 | 62 | 180 | 5.0 | 6.0 | 0.00 | 0.04 | 0.00 | 90 | 1062.6 |
| 20260901012948 | 62 | 180 | 3.0 | 5.0 | 0.00 | 0.04 | 0.00 | 90 | 1069.0 |
| 20260901012448 | 62 | 202 | 2.0 | 4.0 | 0.00 | 0.04 | 0.00 | 90 | 1078.4 |
| 20260901012147 | 62 | 180 | 1.0 | 4.0 | 0.00 | 0.04 | 0.00 | 90 | 1062.7 |
| 20260901011948 | 62 | 180 | 1.0 | 4.0 | 0.00 | 0.04 | 0.00 | 90 | 1076.8 |
| 20260901011448 | 62 | 202 | 1.0 | 4.0 | 0.00 | 0.04 | 0.00 | 90 | 1069.0 |
| 20260901010948 | 62 | 180 | 2.0 | 4.0 | 0.00 | 0.04 | 0.00 | 90 | 1061.3 |
| 20260901010448 | 62 | 202 | 2.0 | 5.0 | 0.00 | 0.04 | 0.00 | 90 | 1023.3 |
| 20260901005948 | 62 | 157 | 3.0 | 4.0 | 0.00 | 0.04 | 0.00 | 90 | 1064.2 |
| 20260901005448 | 62 | 157 | 1.0 | 5.0 | 0.00 | 0.04 | 0.00 | 90 | 1069.0 |
| 20260901004948 | 63 | 180 | 1.0 | 4.0 | 0.00 | 0.04 | 0.00 | 90 | 1056.4 |
| 20260901004847 | 63 | 157 | 2.0 | 4.0 | 0.00 | 0.04 | 0.00 | 90 | 1079.9 |
| 20260901004448 | 63 | 180 | 0.0 | 4.0 | 0.00 | 0.04 | 0.00 | 90 | 1056.4 |
| 20260901003948 | 63 | 135 | 1.0 | 4.0 | 0.00 | 0.04 | 0.00 | 90 | 1038.2 |
| 20260901003448 | 63 | 202 | 1.0 | 5.0 | 0.00 | 0.04 | 0.00 | 90 | 1019.3 |
| 20260901002948 | 63 | 180 | 5.0 | 6.0 | 0.00 | 0.04 | 0.00 | 90 | 1070.5 |
| 20260901002448 | 63 | 202 | 3.0 | 5.0 | 0.00 | 0.04 | 0.00 | 90 | 1062.7 |
| 20260901001948 | 63 | 180 | 1.0 | 3.0 | 0.00 | 0.04 | 0.00 | 90 | 1062.7 |
| 20260901001547 | 63 | 180 | 2.0 | 5.0 | 0.00 | 0.04 | 0.00 | 90 | 1018.9 |
| 20260901001448 | 63 | 157 | 2.0 | 5.0 | 0.00 | 0.04 | 0.00 | 90 | 1068.9 |
| 20260901000948 | 63 | 202 | 0.0 | 5.0 | 0.00 | 0.04 | 0.00 | 90 | 1064.5 |
| 20260901000450 | 63 | 180 | 2.0 | 4.0 | 0.00 | 0.04 | 0.00 | 90 | 1067.4 |
| 20260831235948 | 63 | 157 | 1.0 | 4.0 | 0.00 | 0.04 | 0.00 | 90 | 1072.1 |
| 20260831235448 | 63 | 180 | 4.0 | 4.0 | 0.00 | 0.04 | 0.00 | 90 | 1018.4 |
| 20260831234948 | 63 | 180 | 2.0 | 4.0 | 0.00 | 0.04 | 0.00 | 90 | 1062.6 |
| 20260831234448 | 63 | 180 | 1.0 | 4.0 | 0.00 | 0.04 | 0.00 | 90 | 1035.1 |
| 20260831234247 | 63 | 157 | 3.0 | 4.0 | 0.00 | 0.04 | 0.00 | 90 | 1084.7 |
| 20260831233948 | 63 | 157 | 4.0 | 4.0 | 0.00 | 0.04 | 0.00 | 90 | 1032.8 |
| 20260831233448 | 63 | 157 | 4.0 | 6.0 | 0.00 | 0.04 | 0.00 | 90 | 1075.2 |
| 20260831232948 | 63 | 202 | 5.0 | 6.0 | 0.00 | 0.04 | 0.00 | 89 | 1076.8 |
| 20260831232448 | 63 | 180 | 3.0 | 6.0 | 0.00 | 0.04 | 0.00 | 89 | 1062.7 |
| 20260831231948 | 63 | 225 | 3.0 | 6.0 | 0.00 | 0.04 | 0.00 | 89 | 1072.1 |
| 20260831231448 | 63 | 225 | 2.0 | 6.0 | 0.00 | 0.04 | 0.00 | 89 | 1062.7 |
| 20260831230947 | 63 | 180 | 4.0 | 5.0 | 0.00 | 0.04 | 0.00 | 89 | 1062.7 |
| 20260831230448 | 63 | 157 | 3.0 | 4.0 | 0.00 | 0.04 | 0.00 | 89 | 1067.4 |
| 20260831225948 | 63 | 225 | 1.0 | 4.0 | 0.00 | 0.04 | 0.00 | 89 | 1043.7 |
| 20260831225448 | 63 | 157 | 3.0 | 5.0 | 0.00 | 0.04 | 0.00 | 89 | 1078.4 |
| 20260831224948 | 63 | 180 | 0.0 | 5.0 | 0.00 | 0.04 | 0.00 | 89 | 1081.5 |
| 20260831224448 | 63 | 180 | 2.0 | 6.0 | 0.00 | 0.04 | 0.00 | 89 | 1030.2 |
| 20260831223948 | 63 | 247 | 4.0 | 9.0 | 0.00 | 0.04 | 0.00 | 89 | 1065.8 |
| 20260831223647 | 63 | 202 | 2.0 | 9.0 | 0.00 | 0.04 | 0.00 | 89 | 1086.3 |
| 20260831223448 | 63 | 180 | 4.0 | 4.0 | 0.00 | 0.04 | 0.00 | 89 | 1059.5 |
| 20260831222948 | 63 | 180 | 2.0 | 5.0 | 0.00 | 0.04 | 0.00 | 89 | 1062.7 |
| 20260831222448 | 63 | 157 | 4.0 | 6.0 | 0.00 | 0.04 | 0.00 | 89 | 1080.0 |
| 20260831221948 | 63 | 112 | 2.0 | 4.0 | 0.00 | 0.04 | 0.00 | 89 | 1072.1 |
| 20260831221448 | 64 | 180 | 2.0 | 5.0 | 0.00 | 0.04 | 0.00 | 88 | 1053.2 |
| 20260831220948 | 64 | 157 | 2.0 | 4.0 | 0.00 | 0.04 | 0.00 | 88 | 1090.9 |
| 20260831220519 | 64 | 157 | 2.0 | 3.0 | 0.00 | 0.04 | 0.00 | 88 | 1078.4 |
| 20260831220448 | 64 | 157 | 2.0 | 3.0 | 0.00 | 0.04 | 0.00 | 88 | 1078.4 |
| 20260831220347 | 64 | 157 | 0.0 | 4.0 | 0.00 | 0.04 | 0.00 | 88 | 1075.2 |
| 20260831215948 | 64 | 180 | 2.0 | 4.0 | 0.00 | 0.04 | 0.00 | 88 | 1075.2 |
| 20260831215448 | 64 | 202 | 4.0 | 7.0 | 0.00 | 0.04 | 0.00 | 88 | 1069.0 |
| 20260831214948 | 64 | 247 | 4.0 | 7.0 | 0.00 | 0.04 | 0.00 | 88 | 1040.5 |
| 20260831214448 | 64 | 180 | 2.0 | 7.0 | 0.00 | 0.04 | 0.00 | 88 | 1072.1 |
| 20260831213948 | 64 | 157 | 3.0 | 5.0 | 0.00 | 0.04 | 0.00 | 88 | 1062.7 |
| 20260831213448 | 64 | 157 | 3.0 | 4.0 | 0.00 | 0.04 | 0.00 | 88 | 1062.7 |
| 20260831213047 | 64 | 135 | 2.0 | 4.0 | 0.00 | 0.04 | 0.00 | 88 | 1056.4 |
| 20260831212948 | 64 | 157 | 0.0 | 4.0 | 0.00 | 0.04 | 0.00 | 88 | 1050.1 |
| 20260831212448 | 64 | 180 | 2.0 | 5.0 | 0.00 | 0.04 | 0.00 | 88 | 1062.6 |
| 20260831211948 | 64 | 135 | 3.0 | 4.0 | 0.00 | 0.04 | 0.00 | 88 | 1058.0 |
| 20260831211448 | 64 | 157 | 3.0 | 6.0 | 0.00 | 0.04 | 0.00 | 88 | 999.5 |
| 20260831210948 | 64 | 180 | 2.0 | 7.0 | 0.00 | 0.04 | 0.00 | 87 | 1024.0 |
| 20260831210448 | 64 | 157 | 4.0 | 5.0 | 0.00 | 0.04 | 0.00 | 87 | 1084.7 |
| 20260831205948 | 64 | 157 | 3.0 | 5.0 | 0.00 | 0.04 | 0.00 | 87 | 1053.2 |
| 20260831205747 | 64 | 157 | 3.0 | 4.0 | 0.00 | 0.04 | 0.00 | 87 | 1062.7 |
| 20260831205448 | 64 | 225 | 2.0 | 7.0 | 0.00 | 0.04 | 0.00 | 87 | 1027.1 |
| 20260831204948 | 64 | 180 | 2.0 | 6.0 | 0.00 | 0.04 | 0.00 | 87 | 1076.8 |
| 20260831204448 | 65 | 157 | 1.0 | 8.0 | 0.00 | 0.04 | 0.00 | 87 | 1051.6 |
| 20260831203948 | 65 | 180 | 4.0 | 8.0 | 0.00 | 0.04 | 0.00 | 87 | 1090.9 |
| 20260831203448 | 65 | 135 | 2.0 | 6.0 | 0.00 | 0.04 | 0.00 | 87 | 1065.8 |
| 20260831202948 | 65 | 180 | 2.0 | 9.0 | 0.00 | 0.04 | 0.00 | 87 | 1065.8 |
| 20260831202447 | 65 | 135 | 5.0 | 5.0 | 0.00 | 0.04 | 0.00 | 86 | 1014.5 |
| 20260831201948 | 65 | 157 | 2.0 | 5.0 | 0.00 | 0.04 | 0.00 | 86 | 1072.1 |
| 20260831201448 | 65 | 180 | 6.0 | 6.0 | 0.00 | 0.04 | 0.00 | 86 | 1050.7 |
| 20260831200948 | 65 | 135 | 3.0 | 7.0 | 0.00 | 0.04 | 0.00 | 86 | 1080.2 |
| 20260831200449 | 65 | 135 | 2.0 | 6.0 | 0.00 | 0.04 | 0.00 | 86 | 1070.7 |
| 20260831195948 | 65 | 135 | 3.0 | 6.0 | 0.00 | 0.04 | 0.00 | 86 | 1075.2 |
| 20260831195448 | 65 | 135 | 4.0 | 5.0 | 0.00 | 0.04 | 0.00 | 85 | 1081.5 |
| 20260831195147 | 65 | 135 | 3.0 | 5.0 | 0.00 | 0.04 | 0.00 | 85 | 1033.4 |
| 20260831194948 | 65 | 157 | 2.0 | 5.0 | 0.00 | 0.04 | 0.00 | 85 | 1047.6 |
| 20260831194448 | 65 | 135 | 1.0 | 4.0 | 0.00 | 0.04 | 0.00 | 85 | 1053.2 |
| 20260831193948 | 65 | 157 | 2.0 | 5.0 | 0.00 | 0.04 | 0.00 | 85 | 1050.1 |
| 20260831193448 | 65 | 157 | 3.0 | 5.0 | 0.00 | 0.04 | 0.00 | 85 | 1072.1 |
| 20260831192948 | 65 | 180 | 1.0 | 4.0 | 0.00 | 0.04 | 0.00 | 85 | 1069.0 |
| 20260831192449 | 65 | 157 | 2.0 | 5.0 | 0.00 | 0.04 | 0.00 | 84 | 1075.2 |
| 20260831191948 | 65 | 157 | 3.0 | 7.0 | 0.00 | 0.04 | 0.00 | 84 | 1091.5 |
| 20260831191847 | 65 | 157 | 4.0 | 7.0 | 0.00 | 0.04 | 0.00 | 84 | 1088.3 |
| 20260831191448 | 65 | 135 | 0.0 | 7.0 | 0.00 | 0.04 | 0.00 | 84 | 1081.4 |
| 20260831190948 | 66 | 180 | 5.0 | 7.0 | 0.00 | 0.04 | 0.00 | 84 | 1027.1 |
| 20260831190448 | 66 | 180 | 4.0 | 8.0 | 0.00 | 0.04 | 0.00 | 84 | 1065.8 |
| 20260831185949 | 66 | 202 | 2.0 | 7.0 | 0.00 | 0.04 | 0.00 | 84 | 1065.8 |
| 20260831185449 | 66 | 180 | 4.0 | 8.0 | 0.00 | 0.04 | 0.00 | 83 | 1059.5 |
| 20260831184949 | 66 | 157 | 1.0 | 8.0 | 0.00 | 0.04 | 0.00 | 83 | 1090.9 |
| 20260831184548 | 66 | 180 | 7.0 | 8.0 | 0.00 | 0.04 | 0.00 | 82 | 1072.1 |
| 20260831184449 | 66 | 157 | 2.0 | 6.0 | 0.00 | 0.04 | 0.00 | 82 | 1053.2 |
| 20260831183949 | 66 | 157 | 3.0 | 8.0 | 0.00 | 0.04 | 0.00 | 82 | 1065.8 |
| 20260831183449 | 66 | 202 | 3.0 | 8.0 | 0.00 | 0.04 | 0.00 | 82 | 1050.1 |
| 20260831182949 | 66 | 202 | 1.0 | 6.0 | 0.00 | 0.04 | 0.00 | 82 | 1059.5 |
| 20260831182449 | 67 | 202 | 3.0 | 7.0 | 0.00 | 0.04 | 0.00 | 82 | 1072.1 |
| 20260831181949 | 67 | 157 | 3.0 | 6.0 | 0.00 | 0.04 | 0.00 | 81 | 1075.2 |
| 20260831181449 | 67 | 202 | 3.0 | 5.0 | 0.00 | 0.04 | 0.00 | 81 | 1059.5 |
| 20260831181248 | 67 | 180 | 0.0 | 5.0 | 0.00 | 0.04 | 0.00 | 81 | 1072.1 |
| 20260831180949 | 67 | 180 | 3.0 | 7.0 | 0.00 | 0.04 | 0.00 | 81 | 1089.5 |
| 20260831180449 | 67 | 157 | 3.0 | 7.0 | 0.00 | 0.04 | 0.00 | 81 | 1028.8 |
| 20260831175949 | 67 | 157 | 3.0 | 6.0 | 0.00 | 0.04 | 0.00 | 80 | 1056.4 |
| 20260831175449 | 67 | 157 | 6.0 | 6.0 | 0.00 | 0.04 | 0.00 | 79 | 1023.5 |
| 20260831174949 | 68 | 157 | 4.0 | 4.0 | 0.00 | 0.04 | 0.00 | 79 | 1068.9 |
| 20260831174449 | 68 | 157 | 3.0 | 3.0 | 0.00 | 0.04 | 0.00 | 78 | 1080.0 |
| 20260831173948 | 68 | 180 | 0.0 | 2.0 | 0.00 | 0.04 | 0.00 | 78 | 1075.2 |
| 20260831173449 | 68 | 157 | 0.0 | 3.0 | 0.00 | 0.04 | 0.00 | 77 | 1078.4 |
| 20260831172949 | 69 | 225 | 1.0 | 3.0 | 0.00 | 0.04 | 0.00 | 77 | 1065.8 |
| 20260831172449 | 69 | 202 | 1.0 | 11.0 | 0.00 | 0.04 | 0.00 | 76 | 1065.8 |
| 20260831171949 | 70 | 202 | 2.0 | 4.0 | 0.00 | 0.04 | 0.00 | 76 | 1069.0 |
| 20260831171449 | 70 | 180 | 0.0 | 4.0 | 0.00 | 0.04 | 0.00 | 76 | 1059.5 |
| 20260831170949 | 70 | 135 | 2.0 | 5.0 | 0.00 | 0.04 | 0.00 | 76 | 1062.7 |
| 20260831170648 | 70 | 157 | 2.0 | 5.0 | 0.00 | 0.04 | 0.00 | 76 | 1076.8 |
| 20260831170449 | 71 | 202 | 1.0 | 5.0 | 0.00 | 0.04 | 0.00 | 76 | 1016.2 |
| 20260831165949 | 71 | 157 | 3.0 | 4.0 | 0.00 | 0.04 | 0.00 | 76 | 1043.8 |
| 20260831165449 | 71 | 202 | 1.0 | 4.0 | 0.00 | 0.04 | 0.00 | 76 | 1083.1 |
| 20260831164949 | 71 | 180 | 2.0 | 4.0 | 0.00 | 0.04 | 0.00 | 75 | 1059.5 |
| 20260831164449 | 71 | 202 | 6.0 | 6.0 | 0.00 | 0.04 | 0.00 | 75 | 1053.3 |
| 20260831163949 | 71 | 202 | 2.0 | 4.0 | 0.00 | 0.04 | 0.00 | 75 | 1069.0 |
| 20260831163449 | 72 | 225 | 2.0 | 5.0 | 0.00 | 0.04 | 0.00 | 75 | 1095.7 |
| 20260831163348 | 72 | 180 | 2.0 | 5.0 | 0.00 | 0.04 | 0.00 | 75 | 1073.8 |
| 20260831162949 | 72 | 202 | 2.0 | 6.0 | 0.00 | 0.04 | 0.00 | 75 | 1065.8 |
| 20260831162449 | 72 | 180 | 3.0 | 9.0 | 0.00 | 0.04 | 0.00 | 75 | 1062.7 |
| 20260831161949 | 72 | 202 | 2.0 | 6.0 | 0.00 | 0.04 | 0.00 | 76 | 1065.8 |
| 20260831161449 | 72 | 180 | 3.0 | 5.0 | 0.00 | 0.04 | 0.00 | 76 | 1078.4 |
| 20260831160949 | 72 | 202 | 2.0 | 5.0 | 0.00 | 0.04 | 0.00 | 76 | 1046.9 |
| 20260831160449 | 72 | 225 | 5.0 | 6.0 | 0.00 | 0.04 | 0.00 | 76 | 1078.4 |
| 20260831160048 | 72 | 180 | 2.0 | 7.0 | 0.00 | 0.04 | 0.00 | 75 | 1062.7 |
| 20260831155949 | 72 | 180 | 4.0 | 7.0 | 0.00 | 0.04 | 0.00 | 75 | 1075.2 |
| 20260831155449 | 72 | 157 | 3.0 | 6.0 | 0.00 | 0.04 | 0.00 | 75 | 1056.4 |